Location: Strawberry
(45.6646°N, 111.9596°W)
Time: 13:10:31
(UTC+00:00)

Transit 4A - Pass Details

Date: 11 October 2022
Orbit: 871 x 973 km, 66.8° (Epoch: 26 November)

Event Time Altitude Azimuth Distance (km) Brightness Sun altitude
Rises 11:51:08 0° 328° (NNW) 3,494 10.7 -19.6°
Reaches altitude 10° 11:53:40 10° 332° (NNW) 2,543 10.0 -19.2°
Maximum altitude 11:59:30 64° 54° (NE) 966 8.2 -18.2°
Drops below altitude 10° 12:05:15 10° 135° (SE) 2,515 10.7 -17.2°
Sets 12:07:45 0° 139° (SE) 3,453 11.4 -16.7°
